DW8067 Weather Reports


time (UTC)temp
F
wind
direction
speed
knots
gust
knots
rain 1hr
in
rain 24hr
in
rain mn
in
humidity
%
barometer
mb
20260504204507 77 250 0.0 1.7 0.00 0.00 0.00 40 1014.1
20260504203006 77 255 1.7 6.1 0.00 0.00 0.00 37 1014.3
20260504201505 77 229 1.7 5.2 0.00 0.00 0.00 45 1014.4
20260504200006 77 226 0.0 4.3 0.00 0.00 0.00 38 1014.6
20260504194503 79 231 0.0 0.0 0.00 0.00 0.00 38 1014.8
20260504193108 78 244 0.0 0.0 0.00 0.00 0.00 38 1015.1
20260504191610 76 232 0.0 2.6 0.00 0.00 0.00 38 1015.2
20260504190106 76 248 0.0 2.6 0.00 0.00 0.00 38 1015.4
20260504184553 75 248 1.7 3.5 0.00 0.00 0.00 40 1015.8
20260504183046 74 266 0.9 5.2 0.00 0.00 0.00 42 1015.9
20260504181548 75 136 0.0 3.5 0.00 0.00 0.00 41 1016.1
20260504180044 74 235 1.7 3.5 0.00 0.00 0.00 43 1016.3
20260504174544 75 170 0.0 1.7 0.00 0.00 0.00 39 1016.5
20260504173037 73 319 0.0 2.6 0.00 0.00 0.00 41 1016.6
20260504171537 72 257 0.9 3.5 0.00 0.00 0.00 42 1016.8
20260504081515 49 3 0.0 0.0 0.00 0.00 0.00 94 1017.7
20260504060104 51 3 0.0 0.0 0.00 0.00 0.00 88 1017.8
20260504044555 52 3 0.0 0.0 0.00 0.00 0.00 85 1018.2
20260504043058 52 3 0.0 0.0 0.00 0.00 0.00 86 1018.1
20260504041548 53 3 0.0 0.0 0.00 0.00 0.00 86 1018.2
20260504040100 53 3 0.0 0.0 0.00 0.00 0.00 86 1018.3
20260504034544 54 3 0.0 0.0 0.00 0.00 0.00 85 1018.3
20260504033048 54 3 0.0 0.0 0.00 0.00 0.00 84 1018.1
20260504031554 54 7 0.0 0.0 0.00 0.00 0.00 84 1018.2
20260504030044 55 323 0.0 0.0 0.00 0.00 0.00 81 1018.1
20260504024544 55 323 0.0 0.0 0.00 0.00 0.00 79 1017.9
20260504023042 56 323 0.0 0.0 0.00 0.00 0.00 77 1017.7
20260504021541 56 323 0.0 0.0 0.00 0.00 0.00 76 1017.4
20260504020043 57 323 0.0 0.0 0.00 0.00 0.00 74 1017.2
20260504014542 57 323 0.0 0.0 0.00 0.00 0.00 72 1017.0
20260504013042 58 323 0.0 0.0 0.00 0.00 0.00 70 1016.9
20260504011541 59 323 0.0 0.0 0.00 0.00 0.00 68 1016.8
20260504010038 60 323 0.0 0.0 0.00 0.00 0.00 65 1016.6
20260504004538 61 323 0.0 0.0 0.00 0.00 0.00 61 1016.5
20260504003038 63 323 0.0 0.0 0.00 0.00 0.00 59 1016.3
20260504001545 64 323 0.0 0.0 0.00 0.00 0.00 54 1016.2
20260504000037 66 323 0.0 0.0 0.00 0.00 0.00 50 1016.2
20260503234558 68 323 0.0 0.0 0.00 0.00 0.00 47 1016.3
20260503233044 70 212 0.0 0.0 0.00 0.00 0.00 45 1016.2
20260503231535 72 212 0.0 0.9 0.00 0.00 0.00 40 1016.3
20260503230033 71 200 0.0 1.7 0.00 0.00 0.00 37 1016.3
20260503224532 70 257 0.0 4.3 0.00 0.00 0.00 42 1016.4
20260503223032 70 213 2.6 7.8 0.00 0.00 0.00 43 1016.4
20260503221535 70 245 1.7 8.7 0.00 0.00 0.00 39 1016.5
20260503220031 70 288 0.0 2.6 0.00 0.00 0.00 40 1016.6
20260503214531 70 263 0.9 6.1 0.00 0.00 0.00 38 1016.7
20260503213033 70 242 2.6 7.0 0.00 0.00 0.00 37 1016.8
20260503211530 71 146 0.0 6.1 0.00 0.00 0.00 39 1016.9
20260503210028 72 82 0.0 2.6 0.00 0.00 0.00 35 1017.0